Probability
0 0 0 0 0 0 0 0 0 0 0 0 0 0 0 0 0 0 0 0 0 0 0 0 0 0 0 0 0 0 0 0 0 0 0 0 0 0 0 0 0 0 0 0
3 0 0 0 3 0 0 0 0 0 0 0 0 0 0 0 0 0 0 0 0 0 0 0 0 0 0 0 0 0 0 0 0 0 0 0 0 0 0 0 0 0 0 0
0 0 0 0 0 0 0 0 0 0 0 0 0 0 0 0 0 0 0 0 0 0 0 0 0 0 0 0 0 0 0 0 0 0 0 0 0 0 0 0 0 0 0 0
0 0 0 0 0 0 0 0 0 0 0 0 0 0 0 0 0 0 0 0 0 0 0 0 0 0 0 0 0 0 0 0 0 0 0 0 0 0 0 0 0 0 0 0
0 0 0 0 0 0 0 0 0 0 0 0 0 0 0 0 0 0 0 0 0 0 0 0 0 0 0 0 0 0 0 0 0 0 0 0 0 0 3 6 0 0 0 0
0 0 0 0 0 0 0 0 0 0 0 0 0 0 0 0 0 0 0 0 0 0 0 0 0 0 0 0 0 0 0 0 0 0 0 0 0 0 0 6 0 0 0 0
0 0 0 0 0 0 0 0 0 0 0 0 0 0 0 0 0 0 0 0 0 0 0 0 0 0 0 0 0 0 0 0 0 0 0 0 0 0 0 0 0 0 0 0
0 0 0 0 0 0 0 0 0 0 0 0 0 0 0 0 0 0 0 0 0 0 0 0 0 0 0 0 0 0 0 0 0 0 0 0 0 0 0 0 0 0 0 0
0 0 0 0 0 0 0 0 0 0 0 0 0 0 0 0 0 0 0 0 0 0 0 0 0 0 0 0 0 0 0 0 0 0 0 0 0 0 0 0 0 0 0 0
0 0 0 0 0 0 0 0 0 0 0 0 0 0 0 0 0 0 0 0 0 0 0 0 0 0 0 0 0 0 0 0 0 0 0 0 0 0 0 0 0 0 3 0
0 0 0 0 0 0 0 0 0 0 0 0 0 0 0 0 0 0 0 0 0 0 0 0 0 0 0 0 0 0 0 0 0 0 0 0 0 0 0 0 0 0 0 0
0 0 0 0 0 0 0 0 0 0 0 0 0 0 0 0 0 0 0 0 0 0 0 0 0 0 0 0 0 0 0 0 0 0 0 0 0 0 0 0 0 0 0 0
0 0 0 0 0 0 0 0 0 0 0 0 0 0 0 0 0 0 0 0 0 0 0 0 0 0 0 0 0 0 0 0 0 0 0 0 0 0 0 0 0 0 0 0
0 0 0 0 0 0 0 0 0 0 0 0 0 0 0 0 0 0 0 0 0 0 0 0 0 0 0 0 0 0 0 0 0 0 0 0 0 0 0 0 0 0 0 0
0 0 0 0 0 0 0 0 0 0 0 0 0 0 0 0 0 0 0 0 0 0 0 0 0 0 0 0 0 0 0 0 0 0 0 0 0 0 0 0 0 0 0 0
0 0 0 0 0 0 0 0 0 0 0 0 0 0 0 0 0 0 0 0 0 0 0 0 0 0 0 0 0 0 0 0 0 0 0 0 0 0 0 0 0 0 0 0
0 0 0 0 0 0 0 0 0 0 0 0 0 0 0 0 0 0 0 0 0 0 0 0 0 0 0 0 0 0 0 0 0 0 0 0 0 0 0 0 0 0 0 0
0 0 0 0 0 0 0 0 0 0 0 0 0 0 0 0 0 0 0 0 0 0 0 0 0 0 0 0 0 0 0 0 0 0 0 0 0 0 0 0 0 0 0 0
0 0 0 0 0 0 0 0 0 0 0 0 0 0 0 0 0 0 0 0 0 0 0 0 0 0 0 0 0 0 0 0 0 0 0 0 0 0 0 0 0 0 0 0
0 0 0 0 0 0 0 0 0 0 0 0 0 0 0 0 0 0 0 0 0 0 0 0 0 0 0 0 0 0 0 0 0 0 0 0 0 0 0 0 0 0 0 0
0 0 0 0 0 0 0 0 0 0 0 0 0 0 0 0 0 0 0 0 0 0 0 0 0 0 0 0 0 0 0 0 0 0 0 0 0 0 0 0 0 0 0 0
0 0 0 0 0 0 0 0 0 0 0 0 0 0 0 0 0 0 0 0 0 0 0 0 0 0 0 0 0 0 0 0 0 0 0 0 0 0 0 0 0 0 0 0
0 0 0 0 0 0 0 0 0 0 0 0 0 0 0 0 0 0 0 0 0 0 0 0 0 0 0 0 0 0 0 0 0 0 0 0 0 0 0 0 0 0 0 0
0 0 0 0 0 0 0 0 0 0 0 0 0 0 0 0 0 0 0 0 0 0 0 0 0 0 0 0 0 0 0 0 0 0 0 0 0 0 0 0 0 0 0 0
0 0 0 0 0 0 0 0 0 0 0 0 0 0 0 0 0 0 0 0 0 0 0 0 0 0 0 0 0 0 0 0 0 0 0 0 0 0 0 0 0 0 0 0
0 0 0 0 0 0 0 0 0 0 0 0 0 0 0 0 0 0 0 0 0 0 0 0 0 0 0 0 0 0 0 0 0 0 0 0 0 0 0 0 0 0 0 0
0 0 0 0 0 0 0 0 0 0 0 0 0 0 0 0 0 0 0 0 0 0 0 0 0 0 0 0 0 0 0 0 0 0 0 0 0 0 0 0 0 0 0 0
Height
5847 5844 5843 5840 5837 5833 5828 5823 5818 5811 5804 5796 5789 5782 5774 5766 5758 5748 5738 5729 5720 5710 5701 5692 5684 5677 5670 5665 5660 5655 5653 5650 5648 5647 5647 5647 5648 5650 5653 5656 5660 5664 5669 5674
5844 5841 5839 5836 5832 5828 5823 5816 5810 5804 5798 5788 5779 5770 5762 5753 5742 5730 5719 5709 5698 5688 5678 5669 5661 5654 5648 5643 5638 5634 5632 5630 5629 5627 5626 5626 5626 5627 5629 5631 5635 5639 5645 5651
5841 5838 5834 5830 5828 5822 5816 5809 5802 5794 5788 5778 5769 5759 5748 5737 5725 5712 5700 5688 5676 5666 5657 5649 5642 5636 5631 5627 5623 5620 5618 5616 5614 5612 5611 5610 5610 5610 5610 5611 5612 5616 5620 5626
5837 5834 5830 5828 5821 5816 5809 5803 5793 5786 5777 5767 5757 5746 5734 5721 5706 5693 5680 5668 5658 5649 5641 5634 5628 5623 5619 5614 5610 5607 5604 5602 5600 5598 5597 5596 5596 5596 5595 5595 5595 5596 5599 5604
5833 5830 5825 5819 5814 5807 5801 5793 5782 5774 5764 5753 5742 5731 5720 5704 5688 5675 5663 5653 5645 5637 5629 5623 5617 5611 5606 5601 5597 5593 5590 5587 5585 5583 5582 5582 5581 5581 5581 5581 5581 5582 5582 5585
5830 5825 5819 5815 5806 5799 5792 5785 5773 5763 5752 5741 5729 5716 5705 5689 5674 5662 5651 5642 5633 5626 5618 5611 5604 5598 5592 5586 5582 5578 5574 5571 5569 5567 5566 5566 5566 5567 5567 5568 5568 5569 5570 5571
5827 5821 5813 5809 5800 5793 5786 5778 5767 5756 5743 5729 5714 5699 5685 5673 5662 5651 5642 5632 5623 5614 5606 5598 5590 5583 5576 5570 5565 5561 5557 5554 5552 5551 5550 5550 5551 5552 5553 5554 5555 5556 5558 5559
5822 5816 5811 5802 5794 5786 5777 5766 5754 5743 5729 5715 5702 5687 5673 5661 5651 5641 5632 5622 5612 5602 5593 5584 5575 5566 5559 5553 5547 5542 5538 5536 5534 5533 5533 5534 5535 5537 5539 5541 5543 5545 5546 5548
5818 5813 5804 5795 5786 5777 5767 5756 5745 5732 5719 5704 5689 5676 5663 5652 5642 5631 5621 5609 5598 5588 5578 5568 5558 5548 5540 5534 5528 5523 5520 5518 5516 5516 5517 5518 5520 5523 5525 5528 5531 5534 5536 5538
5812 5806 5798 5788 5779 5771 5761 5749 5736 5723 5708 5693 5678 5666 5654 5644 5633 5622 5610 5598 5585 5574 5562 5552 5541 5531 5521 5514 5508 5504 5501 5500 5499 5500 5501 5503 5506 5509 5513 5517 5520 5524 5526 5529
5806 5799 5793 5785 5774 5764 5754 5742 5728 5714 5698 5683 5669 5657 5646 5636 5624 5612 5599 5586 5573 5560 5547 5535 5524 5514 5504 5497 5491 5487 5485 5484 5484 5485 5487 5490 5494 5498 5502 5506 5510 5514 5518 5521
5801 5793 5785 5776 5767 5756 5745 5733 5720 5705 5691 5676 5662 5650 5639 5628 5616 5603 5589 5576 5562 5548 5535 5522 5510 5500 5491 5483 5478 5474 5472 5471 5471 5473 5475 5479 5483 5488 5492 5497 5502 5506 5511 5514
5796 5788 5780 5771 5761 5750 5738 5726 5712 5697 5683 5669 5657 5645 5634 5622 5609 5596 5582 5568 5553 5539 5525 5512 5501 5490 5481 5473 5468 5464 5462 5461 5462 5464 5467 5471 5475 5480 5485 5491 5496 5501 5505 5508
5789 5782 5774 5765 5755 5743 5731 5719 5706 5692 5677 5663 5651 5641 5629 5617 5605 5591 5577 5562 5548 5533 5520 5507 5495 5485 5476 5468 5463 5459 5457 5456 5456 5458 5462 5466 5470 5475 5481 5487 5492 5497 5501 5504
5783 5775 5767 5758 5749 5738 5726 5714 5702 5688 5674 5661 5649 5638 5627 5614 5602 5588 5574 5560 5545 5531 5518 5506 5494 5484 5475 5468 5462 5458 5456 5454 5455 5457 5460 5464 5469 5474 5480 5486 5491 5495 5499 5502
5778 5771 5763 5754 5744 5733 5722 5710 5697 5684 5670 5657 5647 5636 5625 5612 5600 5587 5574 5560 5546 5533 5519 5507 5496 5487 5478 5471 5466 5462 5459 5458 5458 5460 5463 5467 5471 5477 5482 5487 5491 5496 5500 5503
5773 5765 5757 5749 5739 5728 5717 5705 5692 5680 5667 5655 5645 5634 5624 5613 5601 5589 5576 5563 5549 5536 5524 5512 5502 5493 5485 5478 5472 5468 5466 5465 5465 5467 5470 5473 5477 5481 5486 5491 5495 5499 5503 5507
5767 5759 5751 5742 5733 5723 5713 5701 5690 5677 5665 5653 5644 5634 5623 5613 5602 5591 5579 5568 5556 5543 5531 5520 5510 5501 5493 5487 5481 5478 5476 5475 5475 5476 5478 5481 5484 5488 5491 5495 5499 5504 5508 5513
5762 5755 5747 5738 5729 5719 5709 5699 5687 5676 5664 5653 5643 5633 5623 5614 5605 5594 5584 5574 5563 5552 5540 5529 5519 5511 5503 5497 5492 5489 5486 5485 5485 5485 5487 5489 5491 5494 5498 5502 5506 5510 5515 5520
5758 5751 5743 5734 5725 5716 5706 5696 5686 5674 5663 5652 5643 5634 5625 5617 5608 5599 5590 5580 5570 5560 5550 5540 5531 5523 5515 5509 5504 5500 5497 5495 5495 5495 5496 5497 5499 5502 5505 5509 5513 5518 5523 5528
5754 5747 5739 5731 5722 5713 5704 5694 5684 5673 5663 5652 5643 5635 5627 5619 5611 5604 5596 5588 5579 5570 5561 5552 5544 5536 5529 5523 5517 5513 5509 5507 5505 5505 5505 5506 5508 5511 5514 5517 5522 5527 5532 5538
5749 5742 5735 5728 5720 5711 5701 5692 5682 5672 5662 5652 5643 5635 5628 5622 5615 5608 5601 5594 5586 5579 5571 5564 5556 5549 5543 5537 5532 5527 5523 5520 5518 5517 5517 5518 5520 5522 5525 5529 5533 5538 5543 5549
5744 5738 5731 5724 5716 5708 5699 5690 5680 5671 5662 5652 5643 5636 5629 5623 5617 5612 5606 5599 5592 5586 5580 5574 5568 5562 5556 5551 5546 5541 5538 5535 5533 5532 5532 5532 5534 5536 5538 5542 5546 5550 5554 5559
5738 5733 5726 5719 5712 5705 5697 5688 5679 5670 5660 5651 5643 5636 5630 5624 5619 5613 5608 5603 5598 5592 5587 5582 5577 5573 5568 5563 5559 5555 5552 5550 5548 5547 5547 5547 5548 5550 5552 5554 5557 5561 5564 5568
5732 5727 5721 5715 5708 5701 5694 5686 5678 5669 5660 5651 5642 5635 5629 5624 5620 5615 5611 5606 5602 5597 5593 5589 5585 5581 5577 5573 5570 5567 5565 5563 5561 5560 5560 5560 5560 5561 5563 5565 5568 5570 5573 5577
5726 5721 5716 5710 5704 5697 5690 5683 5675 5667 5659 5651 5642 5635 5629 5624 5620 5616 5612 5608 5604 5600 5597 5593 5590 5587 5584 5581 5578 5576 5574 5572 5571 5570 5570 5570 5571 5571 5572 5574 5576 5578 5581 5583
5720 5715 5710 5705 5698 5692 5685 5678 5672 5665 5657 5650 5642 5634 5628 5623 5619 5615 5612 5609 5606 5602 5599 5596 5594 5591 5589 5586 5584 5582 5581 5580 5579 5578 5578 5578 5578 5579 5579 5581 5582 5584 5586 5589
Wind_Speed
15 14 14 17 21 24 27 30 34 38 42 47 49 52 55 57 60 63 65 68 70 72 74 75 75 74 73 71 69 67 65 64 64 65 67 69 71 73 75 75 75 74 72 69
17 16 16 19 22 25 31 36 40 42 45 50 54 56 58 61 64 67 71 73 74 74 73 71 68 64 59 56 52 49 47 45 44 45 46 49 52 57 62 67 71 73 75 74
20 19 19 22 25 30 35 39 44 47 49 52 55 59 62 65 68 72 73 72 70 66 62 58 53 49 47 44 43 41 40 40 40 40 40 39 40 42 45 49 55 62 67 70
24 23 23 27 30 34 38 41 46 48 51 55 59 62 64 67 69 70 68 64 59 55 50 47 45 43 43 42 43 43 43 43 43 42 41 40 40 39 38 39 42 46 53 59
26 25 29 34 35 39 42 45 50 53 56 60 63 65 66 66 66 63 58 53 50 47 45 44 44 45 46 46 46 45 45 45 45 44 44 43 42 40 39 38 37 38 39 45
28 30 33 36 40 44 47 48 53 57 60 62 65 68 66 63 58 52 49 47 47 47 47 47 48 48 49 48 48 48 48 47 47 46 45 44 42 40 39 37 36 35 34 35
29 32 37 39 44 46 48 51 54 57 60 64 68 67 64 57 50 47 46 47 48 49 50 51 51 51 51 51 52 51 51 49 48 47 46 44 42 39 38 36 35 34 32 32
32 35 39 42 46 49 52 55 58 61 64 67 67 62 56 51 48 47 48 50 51 53 53 53 53 54 54 53 52 52 51 50 48 46 44 42 39 37 36 34 33 32 30 30
35 37 41 45 48 51 55 58 61 63 66 67 64 57 51 48 47 49 51 53 54 55 55 54 54 54 54 53 52 51 49 48 45 42 41 38 36 35 34 33 31 30 28 27
37 39 43 47 50 52 55 59 61 64 66 65 60 54 49 48 50 52 54 54 55 55 56 55 55 54 53 51 49 47 45 43 41 38 36 35 33 32 31 30 29 28 27 26
39 42 44 46 50 53 56 59 62 64 65 62 57 51 49 50 52 53 55 56 56 55 55 53 51 48 46 45 43 41 38 36 35 34 33 31 30 29 28 28 27 26 25 24
41 44 46 49 51 54 57 60 62 64 63 58 53 49 49 51 53 55 56 56 55 54 51 49 47 45 42 39 36 33 31 29 27 26 25 25 25 25 25 25 24 23 22 22
42 44 46 48 51 54 57 60 63 63 62 57 51 48 49 51 53 54 55 55 55 52 49 48 45 41 36 32 29 26 23 21 20 18 18 18 19 20 21 21 20 19 19 20
43 44 46 48 51 55 58 60 62 61 59 54 48 47 49 51 52 53 54 54 53 51 48 45 42 38 33 28 23 19 16 14 11 10 11 13 14 16 18 18 17 16 15 16
43 45 46 48 51 54 57 59 60 60 57 51 46 46 48 50 51 52 53 53 52 50 47 44 40 35 31 26 21 16 12 8 3 3 7 10 12 15 15 14 13 12 12 12
42 43 45 47 50 53 56 58 60 60 55 49 45 45 47 48 50 51 52 52 51 50 47 43 39 35 30 25 20 16 12 8 6 7 9 11 13 14 14 13 13 12 12 15
42 43 45 47 50 53 56 58 60 60 54 47 44 44 44 46 48 49 50 50 50 49 46 43 39 35 30 25 21 18 16 13 13 13 14 14 14 14 14 14 13 13 15 19
42 44 46 48 51 53 55 57 59 59 53 47 43 42 42 44 46 47 48 48 49 48 46 42 38 34 30 26 22 20 18 16 15 15 15 15 15 15 14 14 16 19 20 22
41 43 45 47 50 52 54 56 57 58 53 46 42 41 40 41 42 44 45 45 46 47 46 43 39 35 31 28 24 21 18 17 16 15 15 15 16 16 17 18 20 21 22 25
40 42 44 47 49 51 53 54 56 57 53 46 41 39 38 38 38 39 41 42 43 44 45 43 39 37 34 32 29 25 21 18 16 15 15 15 16 18 19 20 21 22 24 27
40 41 43 46 48 50 51 53 54 55 54 47 41 37 35 34 34 35 36 37 39 40 41 41 39 38 36 33 31 29 26 24 22 20 19 19 21 22 23 24 26 27 29 30
39 41 42 45 47 48 50 51 52 54 53 48 40 35 33 30 29 30 32 34 34 35 37 38 37 36 35 34 33 31 29 28 27 27 27 27 28 28 29 29 30 30 29 29
39 40 42 44 45 47 48 49 50 52 52 49 41 35 31 28 27 26 27 28 30 30 31 32 32 32 32 31 31 31 31 30 29 29 29 29 29 29 29 29 29 29 27 26
38 40 41 43 45 46 46 46 47 49 51 49 43 36 29 26 24 23 23 24 25 26 26 26 27 27 28 28 28 28 28 28 28 28 28 27 27 27 27 26 26 25 24 24
39 40 41 42 43 44 44 44 44 46 48 48 43 36 30 25 22 20 19 19 20 21 22 22 21 22 23 23 23 24 24 23 23 24 24 23 23 23 22 22 21 21 21 21
39 40 41 42 42 43 43 42 42 43 46 46 43 36 30 25 21 18 16 15 15 16 17 17 17 17 18 18 18 18 18 17 17 17 17 17 17 17 18 18 18 18 18 18
39 39 40 41 42 42 42 41 41 41 43 45 43 37 30 25 20 17 15 13 12 12 12 13 13 13 13 13 13 12 12 12 11 11 11 12 12 13 14 14 15 15 15 15
Wind_Direction
329 322 312 304 301 305 308 309 309 309 309 308 308 307 306 306 305 304 302 301 300 298 296 295 293 292 290 289 287 285 284 281 278 276 273 270 267 265 264 262 261 261 261 260
331 328 321 307 306 311 311 311 311 311 311 311 311 310 310 309 308 306 304 304 302 301 299 298 296 295 294 293 292 291 289 286 284 282 279 276 273 269 266 263 261 259 258 257
335 332 324 310 317 314 313 314 314 315 315 314 313 313 314 313 310 308 308 306 305 303 302 301 300 298 297 295 293 291 289 287 286 284 282 280 279 277 273 269 265 261 258 256
337 337 323 322 321 318 317 318 316 318 318 318 318 317 317 315 312 311 310 309 308 307 306 304 302 300 298 296 294 291 289 288 286 284 283 281 279 279 278 275 271 267 262 256
339 337 323 327 326 323 324 324 322 323 323 323 321 320 320 317 316 315 314 313 312 311 308 306 303 301 299 297 294 292 289 287 284 282 281 281 279 276 274 274 273 271 268 260
337 332 325 332 328 328 328 327 327 326 325 323 323 322 322 320 319 318 317 316 314 312 308 306 304 302 299 296 294 292 289 287 284 282 280 278 277 273 270 270 271 271 269 264
335 333 327 332 328 327 327 327 326 326 326 326 327 326 325 324 323 321 319 317 314 311 309 306 303 301 299 296 294 291 289 287 284 281 279 276 274 271 268 267 267 268 266 263
335 333 329 329 328 329 329 329 330 330 330 330 330 329 327 326 325 322 320 318 315 313 310 307 304 301 299 296 294 291 288 286 284 280 277 273 271 267 265 264 263 263 263 261
333 331 329 329 330 331 331 331 332 332 332 332 332 331 330 329 326 324 322 320 318 316 314 311 307 303 300 296 293 290 287 285 282 278 273 270 267 263 260 259 259 258 258 257
330 331 331 331 331 331 332 332 333 334 335 335 335 334 333 331 329 328 325 323 322 320 318 314 310 307 303 298 294 290 287 282 278 274 270 267 264 260 256 254 253 252 253 250
330 330 330 329 329 331 333 335 336 337 338 338 337 337 335 335 333 331 330 328 326 325 323 321 317 313 308 303 300 294 289 285 278 272 267 263 258 254 249 247 246 245 246 245
330 330 330 331 332 333 335 337 338 340 341 341 339 339 338 338 337 335 335 334 333 332 331 328 324 322 316 309 304 298 293 288 281 271 262 256 251 246 242 238 236 239 240 240
329 330 331 332 333 335 337 339 341 343 343 343 342 341 341 341 341 340 340 339 340 339 338 336 333 332 327 321 315 307 300 291 281 267 255 246 238 233 230 226 227 230 234 236
329 331 332 334 335 337 339 342 344 345 346 345 345 345 345 345 346 345 345 345 346 346 345 346 345 344 343 340 334 325 317 306 287 260 242 229 221 216 212 212 217 220 224 225
330 332 334 336 337 339 341 344 346 348 348 348 347 348 348 349 351 351 351 352 353 354 354 354 355 355 354 355 354 352 347 341 318 219 198 193 190 190 192 197 200 201 202 201
331 332 335 337 339 340 342 346 348 350 350 350 350 350 351 353 355 356 356 358 360 1 2 3 4 5 6 8 11 16 25 45 79 113 137 151 162 168 171 173 175 174 173 167
332 334 336 338 341 342 344 347 350 352 352 352 351 352 353 356 358 0 2 3 5 6 8 9 11 14 16 21 30 41 53 69 88 106 119 128 137 144 149 154 156 153 152 151
334 336 338 339 342 344 346 348 351 353 354 353 353 354 355 358 1 5 7 9 10 11 13 14 17 20 24 30 41 51 61 73 89 102 111 118 126 133 137 141 143 143 144 145
334 336 338 340 342 344 346 348 351 354 356 354 354 355 357 359 3 7 9 11 14 17 18 21 25 28 33 39 46 54 65 77 88 99 108 114 121 127 130 134 138 140 140 141
333 336 338 340 342 344 345 348 351 354 356 356 355 356 358 0 4 9 12 15 18 21 24 27 31 35 39 44 49 55 62 72 84 95 105 113 121 127 130 133 138 140 140 139
332 335 338 340 341 343 345 348 350 353 357 357 356 357 359 1 5 10 13 17 21 24 27 31 35 38 43 47 52 58 64 71 80 88 98 108 116 121 125 130 133 136 137 138
330 333 336 339 341 342 344 346 349 352 356 358 356 356 358 1 4 9 13 16 21 25 28 32 36 41 46 50 54 59 65 72 80 88 97 103 108 112 117 122 126 131 134 137
327 331 334 337 340 341 343 345 348 351 354 357 358 356 356 359 2 7 13 16 20 24 28 32 36 41 46 51 55 60 66 73 80 88 95 100 106 111 115 120 124 127 132 134
324 328 332 335 338 340 342 344 346 349 352 355 356 356 354 354 357 1 7 13 18 22 27 31 36 41 46 50 56 62 69 74 79 86 92 98 104 108 113 118 122 126 130 133
320 325 329 332 336 338 340 342 345 348 350 353 354 354 352 350 351 354 359 6 14 19 24 30 35 40 46 51 56 63 69 76 82 87 92 97 103 108 114 120 124 128 132 136
316 321 325 329 332 335 338 340 343 346 348 351 353 352 349 346 345 346 350 355 3 12 19 26 31 38 44 50 55 61 67 75 83 90 95 99 104 110 117 124 129 133 135 137
311 316 321 326 330 333 336 338 340 343 346 349 352 351 348 344 340 338 340 344 351 360 9 17 23 30 38 45 52 57 63 71 82 97 105 109 114 118 123 127 132 137 143 146